Regional Weather Roundup
Issued by NWS Kansas City/Pleasant Hill, MO

Home | Current Version | Previous Version | Text Only | Print | Product List | Glossary On
Versions: 1 2 3 4 5 6 7 8 9 10 11 12 13 14 15 16 17 18 19 20 21 22 23 24 25 26 27 28 29 30 31 32 33 34 35 36 37 38 39 40 41 42 43 44 45 46 47 48 49 50
000
ASUS43 KEAX 021611
RWREAX

WEATHER ROUNDUP FOR EASTERN KANSAS AND NORTHWEST MISSOURI
NATIONAL WEATHER SERVICE KANSAS CITY/PLEASANT HILL MO
1100 AM CDT THU JUL 02 2015

KSZ040-057-103>105-MOZ028-029-037-043-021700-
...KANSAS CITY METROPOLITAN AREA...

CITY           SKY/WX    TMP DP  RH WIND       PRES   REMARKS
K.C. INTL      CLOUDY    71  67  87 NE10      29.92F
K.C. DOWNTOWN  CLOUDY    73  69  87 NE9       29.90F
LEES SUMMIT    CLOUDY    70  68  93 NE13      29.92S
OLATHE - IXD   CLOUDY    72  68  87 NE12      29.92R FOG
OLATHE - OJC   CLOUDY    72  68  87 NE10      29.91S
LAWRENCE       CLOUDY    73  68  84 NE7       29.92R

$$

MOZ001>008-011>017-020>025-030>033-038>040-044>046-053-054-021700-
...NORTHERN AND CENTRAL MISSOURI...

CITY           SKY/WX    TMP DP  RH WIND       PRES   REMARKS
ST. JOSEPH     CLOUDY    70  66  87 NE9       29.93S
MOSBY          CLOUDY    72  66  83 N14       29.91F
HARRISONVILLE  CLOUDY    73  72  94 NE10      29.92F FOG
WARRENSBURG    CLOUDY    70  68  94 NE8       29.90S FOG
WHITEMAN AFB   CLOUDY    71  70  97 E7        29.89F
CLINTON        CLOUDY    73  72  94 E8        29.89F
SEDALIA        CLOUDY    72  69  90 NE9       29.91F FOG
WARSAW         CLOUDY    73  70  88 E5        29.90F
CHILLICOTHE      N/A     69  64  84 NE8       29.96S
KIRKSVILLE     MOSUNNY   70  59  68 E10       29.96F

$$

MOZ041-047>049-056>058-063>065-088>090-097-021700-
...EASTERN AND SOUTHERN MISSOURI...

CITY           SKY/WX    TMP DP  RH WIND       PRES   REMARKS
ST. LOUIS INTL CLOUDY    68  60  75 N10       29.92R
SPIRIT OF STL  CLOUDY    65  62  90 N8        29.91R
COLUMBIA       CLOUDY    69  66  90 NE12      29.93R FOG
JEFFERSON CITY CLOUDY    71  67  87 NE12      29.90R
MEXICO         CLOUDY    70  66  88 NE7       29.94R
ROLLA          CLOUDY    74  68  81 CALM      29.89S
LEBANON        PTSUNNY   73  68  83 CALM      29.91S
OSAGE BEACH    CLOUDY    72  68  88 NE5       29.89F
SPRINGFIELD    PTSUNNY   75  70  84 S8        29.87F
BRANSON        CLOUDY    75  72  88 CALM      29.90
JOPLIN         CLOUDY    82  73  74 NW6       29.86S
WEST PLAINS    MOSUNNY   79  69  71 SW13G20   29.90R
MALDEN         PTSUNNY   82  73  74 W15       29.88R

$$

IAZ060-094-KSZ022-034>040-054-083-096-NEZ052-066-093-021700-
...KANSAS...SOUTHEAST NEBRASKA AND IOWA...

CITY           SKY/WX    TMP DP  RH WIND       PRES   REMARKS
TOPEKA         CLOUDY    75  69  81 NE7       29.92R
MANHATTAN      CLOUDY    77  69  76 N5        29.94R
EMPORIA        CLOUDY    74  69  85 NE8       29.92R
CHANUTE        PTSUNNY   82  72  71 NE10      29.88R
WICHITA        CLOUDY    81  71  71 NE8       29.91R
OMAHA          LGT RAIN  65  62  90 E6        29.96F FOG
LINCOLN        RAIN      67  64  90 E6        29.96S FOG
FALLS CITY     CLOUDY    70  66  87 NE6       29.94R
LAMONI         CLOUDY    69  63  81 NE10      29.97F
DES MOINES     CLOUDY    66  56  70 E9        30.00S

$$



USA.gov is the U.S. government's official web portal to all federal, state and local government web resources and services.